Location: Unspecified
(48.7670°N, 0.0000°E)
Time: 14:35:01
(UTC+00:00)

Altair - Pass Details

Date: 01 July 2019
Orbit: 1501 x 1683 km, 47.2° (Epoch: 17 July)

Event Time Altitude Azimuth Distance (km) Brightness Sun altitude
Rises 01:26:17 0° 287° (WNW) 4,837 10.1 -15.8°
Reaches altitude 10° 01:30:57 10° 268° (W) 3,879 9.4 -15.5°
Maximum altitude 01:36:22 16° 234° (SW) 3,420 8.8 -15.2°
Enters shadow 01:37:46 16° 225° (SW) 3,459 8.8 -15.1°
Drops below altitude 10° 01:41:52 10° 200° (SSW) 3,924 - -14.8°
Sets 01:46:41 0° 181° (S) 4,919 - -14.5°
